Year,Month,Day,Hour,Minute,Value (Times are PST for temperature in C)
2013,04,24,00,00,7.70
2013,04,24,00,01,7.60
2013,04,24,00,02,7.60
2013,04,24,00,03,7.50
2013,04,24,00,04,7.50
2013,04,24,00,05,7.50
2013,04,24,00,06,7.50
2013,04,24,00,07,7.50
2013,04,24,00,08,7.50
2013,04,24,00,09,7.50
2013,04,24,00,10,7.50
2013,04,24,00,11,7.40
2013,04,24,00,12,7.40
2013,04,24,00,13,7.40
2013,04,24,00,14,7.40
2013,04,24,00,15,7.50
2013,04,24,00,16,7.50
2013,04,24,00,17,7.50
2013,04,24,00,18,7.50
2013,04,24,00,19,7.50
2013,04,24,00,20,7.50
2013,04,24,00,21,7.50
2013,04,24,00,22,7.50
2013,04,24,00,23,7.50
2013,04,24,00,24,7.60
2013,04,24,00,25,7.70
2013,04,24,00,26,7.70
2013,04,24,00,27,7.70
2013,04,24,00,28,7.80
2013,04,24,00,29,7.80
2013,04,24,00,30,7.90
2013,04,24,00,31,7.90
2013,04,24,00,32,7.90
2013,04,24,00,33,7.90
2013,04,24,00,34,7.90
2013,04,24,00,35,7.80
2013,04,24,00,36,7.80
2013,04,24,00,37,7.70
2013,04,24,00,38,7.70
2013,04,24,00,39,7.70
2013,04,24,00,40,7.70
2013,04,24,00,41,7.80
2013,04,24,00,42,7.80
2013,04,24,00,43,7.90
2013,04,24,00,44,7.90
2013,04,24,00,45,7.90
2013,04,24,00,46,7.90
2013,04,24,00,47,7.80
2013,04,24,00,48,7.80
2013,04,24,00,49,7.80
2013,04,24,00,50,7.80
2013,04,24,00,51,7.80
2013,04,24,00,52,7.80
2013,04,24,00,53,7.80
2013,04,24,00,54,7.80
2013,04,24,00,55,7.80
2013,04,24,00,56,7.80
2013,04,24,00,57,7.80
2013,04,24,00,58,7.80
2013,04,24,00,59,7.70
2013,04,24,01,00,7.70
2013,04,24,01,01,7.80
2013,04,24,01,02,7.90
2013,04,24,01,03,8.00
2013,04,24,01,04,8.10
2013,04,24,01,05,8.10
2013,04,24,01,06,8.10
2013,04,24,01,07,8.10
2013,04,24,01,08,8.20
2013,04,24,01,09,8.30
2013,04,24,01,10,8.50
2013,04,24,01,11,8.60
2013,04,24,01,12,8.70
2013,04,24,01,13,8.80
2013,04,24,01,14,9.10
2013,04,24,01,15,9.30
2013,04,24,01,16,9.40
2013,04,24,01,17,9.50
2013,04,24,01,18,9.50
2013,04,24,01,19,9.50
2013,04,24,01,20,9.50
2013,04,24,01,21,9.40
2013,04,24,01,22,9.40
2013,04,24,01,23,9.40
2013,04,24,01,24,9.40
2013,04,24,01,25,9.40
2013,04,24,01,26,9.40
2013,04,24,01,27,9.40
2013,04,24,01,28,9.50
2013,04,24,01,29,9.50
2013,04,24,01,30,9.50
2013,04,24,01,31,9.40
2013,04,24,01,32,9.30
2013,04,24,01,33,9.20
2013,04,24,01,34,9.10
2013,04,24,01,35,9.10
2013,04,24,01,36,9.10
2013,04,24,01,37,9.10
2013,04,24,01,38,9.10
2013,04,24,01,39,9.10
2013,04,24,01,40,9.00
2013,04,24,01,41,9.00
2013,04,24,01,42,8.90
2013,04,24,01,43,8.80
2013,04,24,01,44,8.80
2013,04,24,01,45,8.80
2013,04,24,01,46,8.80
2013,04,24,01,47,8.80
2013,04,24,01,48,8.80
2013,04,24,01,49,8.80
2013,04,24,01,50,8.80
2013,04,24,01,51,8.80
2013,04,24,01,52,8.80
2013,04,24,01,53,8.80
2013,04,24,01,54,8.80
2013,04,24,01,55,8.70
2013,04,24,01,56,8.70
2013,04,24,01,57,8.50
2013,04,24,01,58,8.40
2013,04,24,01,59,8.30
2013,04,24,02,00,8.20
2013,04,24,02,01,8.20
2013,04,24,02,02,8.30
2013,04,24,02,03,8.30
2013,04,24,02,04,8.40
2013,04,24,02,05,8.40
2013,04,24,02,06,8.40
2013,04,24,02,07,8.40
2013,04,24,02,08,8.30
2013,04,24,02,09,8.20
2013,04,24,02,10,8.10
2013,04,24,02,11,7.90
2013,04,24,02,12,7.80
2013,04,24,02,13,7.60
2013,04,24,02,14,7.50
2013,04,24,02,15,7.30
2013,04,24,02,16,7.20
2013,04,24,02,17,7.10
2013,04,24,02,18,6.90
2013,04,24,02,19,6.80
2013,04,24,02,20,6.70
2013,04,24,02,21,6.70
2013,04,24,02,22,6.70
2013,04,24,02,23,6.70
2013,04,24,02,24,6.80
2013,04,24,02,25,6.90
2013,04,24,02,26,6.90
2013,04,24,02,27,7.00
2013,04,24,02,28,7.00
2013,04,24,02,29,7.10
2013,04,24,02,30,7.10
2013,04,24,02,31,7.20
2013,04,24,02,32,7.20
2013,04,24,02,33,7.20
2013,04,24,02,34,7.10
2013,04,24,02,35,7.00
2013,04,24,02,36,6.90
2013,04,24,02,37,6.80
2013,04,24,02,38,6.80
2013,04,24,02,39,6.70
2013,04,24,02,40,6.60
2013,04,24,02,41,6.60
2013,04,24,02,42,6.50
2013,04,24,02,43,6.40
2013,04,24,02,44,6.40
2013,04,24,02,45,6.40
2013,04,24,02,46,6.50
2013,04,24,02,47,6.60
2013,04,24,02,48,6.70
2013,04,24,02,49,6.70
2013,04,24,02,50,6.70
2013,04,24,02,51,6.80
2013,04,24,02,52,6.80
2013,04,24,02,53,6.90
2013,04,24,02,54,6.90
2013,04,24,02,55,6.80
2013,04,24,02,56,6.80
2013,04,24,02,57,6.70
2013,04,24,02,58,6.70
2013,04,24,02,59,6.60
2013,04,24,03,00,6.60
2013,04,24,03,01,6.50
2013,04,24,03,02,6.50
2013,04,24,03,03,6.50
2013,04,24,03,04,6.40
2013,04,24,03,05,6.30
2013,04,24,03,06,6.30
2013,04,24,03,07,6.30
2013,04,24,03,08,6.30
2013,04,24,03,09,6.30
2013,04,24,03,10,6.40
2013,04,24,03,11,6.50
2013,04,24,03,12,6.60
2013,04,24,03,13,6.60
2013,04,24,03,14,6.70
2013,04,24,03,15,6.70
2013,04,24,03,16,6.80
2013,04,24,03,17,6.90
2013,04,24,03,18,6.90
2013,04,24,03,19,6.90
2013,04,24,03,20,6.90
2013,04,24,03,21,6.90
2013,04,24,03,22,6.90
2013,04,24,03,23,6.80
2013,04,24,03,24,6.70
2013,04,24,03,25,6.70
2013,04,24,03,26,6.60
2013,04,24,03,27,6.60
2013,04,24,03,28,6.50
2013,04,24,03,29,6.50
2013,04,24,03,30,6.50
2013,04,24,03,31,6.50
2013,04,24,03,32,6.60
2013,04,24,03,33,6.70
2013,04,24,03,34,6.60
2013,04,24,03,35,6.50
2013,04,24,03,36,6.50
2013,04,24,03,37,6.40
2013,04,24,03,38,6.40
2013,04,24,03,39,6.40
2013,04,24,03,40,6.30
2013,04,24,03,41,6.30
2013,04,24,03,42,6.20
2013,04,24,03,43,6.10
2013,04,24,03,44,6.00
2013,04,24,03,45,6.00
2013,04,24,03,46,6.00
2013,04,24,03,47,6.00
2013,04,24,03,48,6.00
2013,04,24,03,49,6.00
2013,04,24,03,50,6.00
2013,04,24,03,51,6.00
2013,04,24,03,52,5.90
2013,04,24,03,53,5.80
2013,04,24,03,54,5.80
2013,04,24,03,55,5.80
2013,04,24,03,56,5.80
2013,04,24,03,57,5.70
2013,04,24,03,58,5.70
2013,04,24,03,59,5.70
2013,04,24,04,00,5.60
2013,04,24,04,01,5.50
2013,04,24,04,02,5.50
2013,04,24,04,03,5.40
2013,04,24,04,04,5.40
2013,04,24,04,05,5.30
2013,04,24,04,06,5.30
2013,04,24,04,07,5.30
2013,04,24,04,08,5.30
2013,04,24,04,09,5.30
2013,04,24,04,10,5.40
2013,04,24,04,11,5.40
2013,04,24,04,12,5.50
2013,04,24,04,13,5.50
2013,04,24,04,14,5.40
2013,04,24,04,15,5.40
2013,04,24,04,16,5.40
2013,04,24,04,17,5.30
2013,04,24,04,18,5.30
2013,04,24,04,19,5.30
2013,04,24,04,20,5.40
2013,04,24,04,21,5.50
2013,04,24,04,22,5.50
2013,04,24,04,23,5.60
2013,04,24,04,24,5.60
2013,04,24,04,25,5.60
2013,04,24,04,26,5.60
2013,04,24,04,27,5.70
2013,04,24,04,28,5.60
2013,04,24,04,29,5.60
2013,04,24,04,30,5.60
2013,04,24,04,31,5.50
2013,04,24,04,32,5.50
2013,04,24,04,33,5.40
2013,04,24,04,34,5.40
2013,04,24,04,35,5.30
2013,04,24,04,36,5.30
2013,04,24,04,37,5.30
2013,04,24,04,38,5.30
2013,04,24,04,39,5.30
2013,04,24,04,40,5.30
2013,04,24,04,41,5.30
2013,04,24,04,42,5.30
2013,04,24,04,43,5.30
2013,04,24,04,44,5.30
2013,04,24,04,45,5.30
2013,04,24,04,46,5.30
2013,04,24,04,47,5.30
2013,04,24,04,48,5.30
2013,04,24,04,49,5.20
2013,04,24,04,50,5.20
2013,04,24,04,51,5.10
2013,04,24,04,52,5.10
2013,04,24,04,53,5.00
2013,04,24,04,54,4.90
2013,04,24,04,55,4.90
2013,04,24,04,56,4.90
2013,04,24,04,57,4.80
2013,04,24,04,58,4.80
2013,04,24,04,59,4.80
2013,04,24,05,00,4.80
2013,04,24,05,01,4.80
2013,04,24,05,02,4.90
2013,04,24,05,03,4.90
2013,04,24,05,04,4.90
2013,04,24,05,05,4.90
2013,04,24,05,06,4.90
2013,04,24,05,07,4.90
2013,04,24,05,08,4.90
2013,04,24,05,09,4.90
2013,04,24,05,10,4.90
2013,04,24,05,11,4.90
2013,04,24,05,12,4.80
2013,04,24,05,13,4.90
2013,04,24,05,14,4.90
2013,04,24,05,15,4.90
2013,04,24,05,16,4.90
2013,04,24,05,17,4.90
2013,04,24,05,18,4.90
2013,04,24,05,19,4.90
2013,04,24,05,20,4.80
2013,04,24,05,21,4.80
2013,04,24,05,22,4.70
2013,04,24,05,23,4.70
2013,04,24,05,24,4.60
2013,04,24,05,25,4.60
2013,04,24,05,26,4.50
2013,04,24,05,27,4.50
2013,04,24,05,28,4.50
2013,04,24,05,29,4.50
2013,04,24,05,30,4.50
2013,04,24,05,31,4.50
2013,04,24,05,32,4.50
2013,04,24,05,33,4.40
2013,04,24,05,34,4.40
2013,04,24,05,35,4.40
2013,04,24,05,36,4.40
2013,04,24,05,37,4.40
2013,04,24,05,38,4.40
2013,04,24,05,39,4.40
2013,04,24,05,40,4.40
2013,04,24,05,41,4.40
2013,04,24,05,42,4.40
2013,04,24,05,43,4.40
2013,04,24,05,44,4.40
2013,04,24,05,45,4.40
2013,04,24,05,46,4.50
2013,04,24,05,47,4.60
2013,04,24,05,48,4.60
2013,04,24,05,49,4.60
2013,04,24,05,50,4.70
2013,04,24,05,51,4.70
2013,04,24,05,52,4.80
2013,04,24,05,53,4.90
2013,04,24,05,54,5.00
2013,04,24,05,55,5.00
2013,04,24,05,56,5.10
2013,04,24,05,57,5.20
2013,04,24,05,58,5.30
2013,04,24,05,59,5.40
2013,04,24,06,00,5.40
2013,04,24,06,01,5.50
2013,04,24,06,02,5.50
2013,04,24,06,03,5.50
2013,04,24,06,04,5.50
2013,04,24,06,05,5.70
2013,04,24,06,06,5.80
2013,04,24,06,07,5.80
2013,04,24,06,08,5.90
2013,04,24,06,09,5.80
2013,04,24,06,10,5.80
2013,04,24,06,11,5.90
2013,04,24,06,12,5.90
2013,04,24,06,13,5.90
2013,04,24,06,14,5.90
2013,04,24,06,15,5.90
2013,04,24,06,16,5.90
2013,04,24,06,17,5.90
2013,04,24,06,18,5.90
2013,04,24,06,19,5.90
2013,04,24,06,20,6.00
2013,04,24,06,21,6.00
2013,04,24,06,22,6.00
2013,04,24,06,23,6.00
2013,04,24,06,24,6.10
2013,04,24,06,25,6.10
2013,04,24,06,26,6.00
2013,04,24,06,27,6.00
2013,04,24,06,28,6.00
2013,04,24,06,29,5.90
2013,04,24,06,30,5.90
2013,04,24,06,31,5.80
2013,04,24,06,32,5.80
2013,04,24,06,33,5.90
2013,04,24,06,34,5.90
2013,04,24,06,35,5.90
2013,04,24,06,36,6.00
2013,04,24,06,37,6.00
2013,04,24,06,38,6.00
2013,04,24,06,39,6.00
2013,04,24,06,40,5.90
2013,04,24,06,41,6.00
2013,04,24,06,42,6.10
2013,04,24,06,43,6.10
2013,04,24,06,44,6.30
2013,04,24,06,45,6.40
2013,04,24,06,46,6.50
2013,04,24,06,47,6.50
2013,04,24,06,48,6.50
2013,04,24,06,49,6.50
2013,04,24,06,50,6.50
2013,04,24,06,51,6.50
2013,04,24,06,52,6.50
2013,04,24,06,53,6.40
2013,04,24,06,54,6.40
2013,04,24,06,55,6.40
2013,04,24,06,56,6.40
2013,04,24,06,57,6.40
2013,04,24,06,58,6.50
2013,04,24,06,59,6.60
2013,04,24,07,00,6.70
2013,04,24,07,01,6.70
2013,04,24,07,02,6.80
2013,04,24,07,03,6.80
2013,04,24,07,04,6.90
2013,04,24,07,05,6.90
2013,04,24,07,06,7.00
2013,04,24,07,07,7.10
2013,04,24,07,08,7.30
2013,04,24,07,09,7.30
2013,04,24,07,10,7.30
2013,04,24,07,11,7.40
2013,04,24,07,12,7.40
2013,04,24,07,13,7.50
2013,04,24,07,14,7.50
2013,04,24,07,15,7.60
2013,04,24,07,16,7.60
2013,04,24,07,17,7.70
2013,04,24,07,18,7.70
2013,04,24,07,19,7.80
2013,04,24,07,20,7.80
2013,04,24,07,21,7.80
2013,04,24,07,22,7.80
2013,04,24,07,23,7.90
2013,04,24,07,24,7.80
2013,04,24,07,25,7.80
2013,04,24,07,26,7.80
2013,04,24,07,27,7.80
2013,04,24,07,28,7.80
2013,04,24,07,29,7.90
2013,04,24,07,30,7.90
2013,04,24,07,31,8.00
2013,04,24,07,32,8.10
2013,04,24,07,33,8.20
2013,04,24,07,34,8.20
2013,04,24,07,35,8.30
2013,04,24,07,36,8.30
2013,04,24,07,37,8.30
2013,04,24,07,38,8.40
2013,04,24,07,39,8.40
2013,04,24,07,40,8.50
2013,04,24,07,41,8.60
2013,04,24,07,42,8.70
2013,04,24,07,43,8.80
2013,04,24,07,44,8.90
2013,04,24,07,45,9.10
2013,04,24,07,46,9.20
2013,04,24,07,47,9.30
2013,04,24,07,48,9.40
2013,04,24,07,49,9.50
2013,04,24,07,50,9.60
2013,04,24,07,51,9.70
2013,04,24,07,52,9.90
2013,04,24,07,53,10.00
2013,04,24,07,54,10.10
2013,04,24,07,55,10.20
2013,04,24,07,56,10.30
2013,04,24,07,57,10.40
2013,04,24,07,58,10.50
2013,04,24,07,59,10.60
2013,04,24,08,00,10.70
2013,04,24,08,01,10.70
2013,04,24,08,02,10.80
2013,04,24,08,03,10.90
2013,04,24,08,04,11.00
2013,04,24,08,05,11.10
2013,04,24,08,06,11.20
2013,04,24,08,07,11.30
2013,04,24,08,08,11.40
2013,04,24,08,09,11.50
2013,04,24,08,10,11.50
2013,04,24,08,11,11.60
2013,04,24,08,12,11.60
2013,04,24,08,13,11.70
2013,04,24,08,14,11.70
2013,04,24,08,15,11.80
2013,04,24,08,16,11.80
2013,04,24,08,17,11.80
2013,04,24,08,18,11.80
2013,04,24,08,19,11.80
2013,04,24,08,20,11.90
2013,04,24,08,21,11.90
2013,04,24,08,22,11.90
2013,04,24,08,23,12.00
2013,04,24,08,24,12.00
2013,04,24,08,25,12.10
2013,04,24,08,26,12.00
2013,04,24,08,27,12.00
2013,04,24,08,28,12.10
2013,04,24,08,29,12.10
2013,04,24,08,30,12.20
2013,04,24,08,31,12.20
2013,04,24,08,32,12.20
2013,04,24,08,33,12.30
2013,04,24,08,34,12.30
2013,04,24,08,35,12.30
2013,04,24,08,36,12.30
2013,04,24,08,37,12.40
2013,04,24,08,38,12.40
2013,04,24,08,39,12.40
2013,04,24,08,40,12.40
2013,04,24,08,41,12.50
2013,04,24,08,42,12.50
2013,04,24,08,43,12.50
2013,04,24,08,44,12.60
2013,04,24,08,45,12.60
2013,04,24,08,46,12.60
2013,04,24,08,47,12.60
2013,04,24,08,48,12.50
2013,04,24,08,49,12.50
2013,04,24,08,50,12.50
2013,04,24,08,51,12.40
2013,04,24,08,52,12.40
2013,04,24,08,53,12.40
2013,04,24,08,54,12.50
2013,04,24,08,55,12.60
2013,04,24,08,56,12.60
2013,04,24,08,57,12.60
2013,04,24,08,58,12.70
2013,04,24,08,59,12.70
2013,04,24,09,00,12.70
2013,04,24,09,01,12.70
2013,04,24,09,02,12.70
2013,04,24,09,03,12.60
2013,04,24,09,04,12.50
2013,04,24,09,05,12.50
2013,04,24,09,06,12.40
2013,04,24,09,07,12.40
2013,04,24,09,08,12.40
2013,04,24,09,09,12.30
2013,04,24,09,10,12.20
2013,04,24,09,11,12.20
2013,04,24,09,12,12.10
2013,04,24,09,13,12.00
2013,04,24,09,14,11.90
2013,04,24,09,15,11.80
2013,04,24,09,16,11.70
2013,04,24,09,17,11.70
2013,04,24,09,18,11.60
2013,04,24,09,19,11.60
2013,04,24,09,20,11.50
2013,04,24,09,21,11.50
2013,04,24,09,22,11.50
2013,04,24,09,23,11.60
2013,04,24,09,24,11.70
2013,04,24,09,25,11.70
2013,04,24,09,26,11.80
2013,04,24,09,27,11.90
2013,04,24,09,28,12.00
2013,04,24,09,29,12.10
2013,04,24,09,30,12.10
2013,04,24,09,31,12.00
2013,04,24,09,32,11.90
2013,04,24,09,33,11.90
2013,04,24,09,34,11.80
2013,04,24,09,35,11.80
2013,04,24,09,36,11.70
2013,04,24,09,37,11.70
2013,04,24,09,38,11.60
2013,04,24,09,39,11.60
2013,04,24,09,40,11.60
2013,04,24,09,41,11.60
2013,04,24,09,42,11.50
2013,04,24,09,43,11.50
2013,04,24,09,44,11.50
2013,04,24,09,45,11.50
2013,04,24,09,46,11.50
2013,04,24,09,47,11.40
2013,04,24,09,48,11.40
2013,04,24,09,49,11.40
2013,04,24,09,50,11.40
2013,04,24,09,51,11.40
2013,04,24,09,52,11.30
2013,04,24,09,53,11.30
2013,04,24,09,54,11.40
2013,04,24,09,55,11.40
2013,04,24,09,56,11.50
2013,04,24,09,57,11.50
2013,04,24,09,58,11.60
2013,04,24,09,59,11.60
2013,04,24,10,00,11.70
2013,04,24,10,01,11.70
2013,04,24,10,02,11.70
2013,04,24,10,03,11.80
2013,04,24,10,04,11.80
2013,04,24,10,05,11.90
2013,04,24,10,06,11.90
2013,04,24,10,07,12.00
2013,04,24,10,08,12.10
2013,04,24,10,09,12.20
2013,04,24,10,10,12.30
2013,04,24,10,11,12.40
2013,04,24,10,12,12.50
2013,04,24,10,13,12.60
2013,04,24,10,14,12.70
2013,04,24,10,15,12.70
2013,04,24,10,16,12.70
2013,04,24,10,17,12.70
2013,04,24,10,18,12.70
2013,04,24,10,19,12.70
2013,04,24,10,20,12.70
2013,04,24,10,21,12.80
2013,04,24,10,22,12.80
2013,04,24,10,23,12.90
2013,04,24,10,24,12.90
2013,04,24,10,25,12.90
2013,04,24,10,26,12.90
2013,04,24,10,27,12.90
2013,04,24,10,28,12.90
2013,04,24,10,29,12.80
2013,04,24,10,30,12.80
2013,04,24,10,31,12.80
2013,04,24,10,32,12.70
2013,04,24,10,33,12.70
2013,04,24,10,34,12.60
2013,04,24,10,35,12.60
2013,04,24,10,36,12.60
2013,04,24,10,37,12.50
2013,04,24,10,38,12.40
2013,04,24,10,39,12.40
2013,04,24,10,40,12.30
2013,04,24,10,41,12.30
2013,04,24,10,42,12.30
2013,04,24,10,43,12.30
2013,04,24,10,44,12.30
2013,04,24,10,45,12.30
2013,04,24,10,46,12.30
2013,04,24,10,47,12.20
2013,04,24,10,48,12.20
2013,04,24,10,49,12.20
2013,04,24,10,50,12.20
2013,04,24,10,51,12.20
2013,04,24,10,52,12.20
2013,04,24,10,53,12.20
2013,04,24,10,54,12.20
2013,04,24,10,55,12.20
2013,04,24,10,56,12.10
2013,04,24,10,57,12.10
2013,04,24,10,58,12.10
2013,04,24,10,59,12.10
2013,04,24,11,00,12.20
2013,04,24,11,01,12.20
2013,04,24,11,02,12.20
2013,04,24,11,03,12.20
2013,04,24,11,04,12.20
2013,04,24,11,05,12.20
2013,04,24,11,06,12.30
2013,04,24,11,07,12.30
2013,04,24,11,08,12.30
2013,04,24,11,09,12.40
2013,04,24,11,10,12.40
2013,04,24,11,11,12.40
2013,04,24,11,12,12.40
2013,04,24,11,13,12.50
2013,04,24,11,14,12.50
2013,04,24,11,15,12.50
2013,04,24,11,16,12.60
2013,04,24,11,17,12.60
2013,04,24,11,18,12.60
2013,04,24,11,19,12.60
2013,04,24,11,20,12.70
2013,04,24,11,21,12.70
2013,04,24,11,22,12.80
2013,04,24,11,23,12.80
2013,04,24,11,24,12.90
2013,04,24,11,25,12.90
2013,04,24,11,26,13.00
2013,04,24,11,27,13.00
2013,04,24,11,28,13.00
2013,04,24,11,29,13.00
2013,04,24,11,30,12.90
2013,04,24,11,31,12.90
2013,04,24,11,32,13.00
2013,04,24,11,33,13.00
2013,04,24,11,34,13.00
2013,04,24,11,35,13.00
2013,04,24,11,36,12.90
2013,04,24,11,37,12.90
2013,04,24,11,38,12.90
2013,04,24,11,39,12.90
2013,04,24,11,40,12.90
2013,04,24,11,41,12.90
2013,04,24,11,42,13.00
2013,04,24,11,43,13.00
2013,04,24,11,44,13.00
2013,04,24,11,45,13.00
2013,04,24,11,46,13.10
2013,04,24,11,47,13.10
2013,04,24,11,48,13.10
2013,04,24,11,49,13.10
2013,04,24,11,50,13.20
2013,04,24,11,51,13.10
2013,04,24,11,52,13.10
2013,04,24,11,53,13.00
2013,04,24,11,54,13.00
2013,04,24,11,55,13.00
2013,04,24,11,56,12.90
2013,04,24,11,57,12.90
2013,04,24,11,58,12.90
2013,04,24,11,59,12.90
2013,04,24,12,00,12.90
2013,04,24,12,01,12.90
2013,04,24,12,02,12.90
2013,04,24,12,03,12.90
2013,04,24,12,04,12.80
2013,04,24,12,05,12.80
2013,04,24,12,06,12.80
2013,04,24,12,07,12.90
2013,04,24,12,08,12.90
2013,04,24,12,09,12.90
2013,04,24,12,10,13.00
2013,04,24,12,11,13.10
2013,04,24,12,12,13.10
2013,04,24,12,13,13.20
2013,04,24,12,14,13.20
2013,04,24,12,15,13.20
2013,04,24,12,16,13.20
2013,04,24,12,17,13.10
2013,04,24,12,18,13.10
2013,04,24,12,19,13.10
2013,04,24,12,20,13.00
2013,04,24,12,21,12.90
2013,04,24,12,22,12.80
2013,04,24,12,23,12.80
2013,04,24,12,24,12.90
2013,04,24,12,25,12.90
2013,04,24,12,26,13.00
2013,04,24,12,27,13.00
2013,04,24,12,28,13.00
2013,04,24,12,29,13.10
2013,04,24,12,30,13.10
2013,04,24,12,31,13.10
2013,04,24,12,32,13.20
2013,04,24,12,33,13.20
2013,04,24,12,34,13.20
2013,04,24,12,35,13.20
2013,04,24,12,36,13.30
2013,04,24,12,37,13.30
2013,04,24,12,38,13.40
2013,04,24,12,39,13.40
2013,04,24,12,40,13.40
2013,04,24,12,41,13.50
2013,04,24,12,42,13.60
2013,04,24,12,43,13.60
2013,04,24,12,44,13.60
2013,04,24,12,45,13.60
2013,04,24,12,46,13.60
2013,04,24,12,47,13.60
2013,04,24,12,48,13.50
2013,04,24,12,49,13.40
2013,04,24,12,50,13.30
2013,04,24,12,51,13.30
2013,04,24,12,52,13.30
2013,04,24,12,53,13.30
2013,04,24,12,54,13.30
2013,04,24,12,55,13.30
2013,04,24,12,56,13.30
2013,04,24,12,57,13.30
2013,04,24,12,58,13.30
2013,04,24,12,59,13.30
2013,04,24,13,00,13.30
2013,04,24,13,01,13.30
2013,04,24,13,02,13.30
2013,04,24,13,03,13.20
2013,04,24,13,04,13.20
2013,04,24,13,05,13.20
2013,04,24,13,06,13.20
2013,04,24,13,07,13.20
2013,04,24,13,08,13.10
2013,04,24,13,09,13.10
2013,04,24,13,10,13.10
2013,04,24,13,11,13.00
2013,04,24,13,12,13.00
2013,04,24,13,13,13.00
2013,04,24,13,14,13.00
2013,04,24,13,15,13.00
2013,04,24,13,16,13.10
2013,04,24,13,17,13.10
2013,04,24,13,18,13.10
2013,04,24,13,19,13.10
2013,04,24,13,20,13.20
2013,04,24,13,21,13.20
2013,04,24,13,22,13.20
2013,04,24,13,23,13.10
2013,04,24,13,24,13.10
2013,04,24,13,25,13.10
2013,04,24,13,26,13.10
2013,04,24,13,27,13.20
2013,04,24,13,28,13.00
2013,04,24,13,29,13.00
2013,04,24,13,30,12.90
2013,04,24,13,31,12.90
2013,04,24,13,32,12.90
2013,04,24,13,33,12.90
2013,04,24,13,34,13.00
2013,04,24,13,35,13.10
2013,04,24,13,36,13.10
2013,04,24,13,37,13.20
2013,04,24,13,38,13.20
2013,04,24,13,39,13.30
2013,04,24,13,40,13.30
2013,04,24,13,41,13.30
2013,04,24,13,42,13.20
2013,04,24,13,43,13.20
2013,04,24,13,44,13.20
2013,04,24,13,45,13.20
2013,04,24,13,46,13.20
2013,04,24,13,47,13.20
2013,04,24,13,48,13.20
2013,04,24,13,49,13.30
2013,04,24,13,50,13.30
2013,04,24,13,51,13.30
2013,04,24,13,52,13.20
2013,04,24,13,53,13.30
2013,04,24,13,54,13.30
2013,04,24,13,55,13.30
2013,04,24,13,56,13.40
2013,04,24,13,57,13.50
2013,04,24,13,58,13.60
2013,04,24,13,59,13.60
2013,04,24,14,00,13.60
2013,04,24,14,01,13.60
2013,04,24,14,02,13.70
2013,04,24,14,03,13.70
2013,04,24,14,04,13.80
2013,04,24,14,05,13.90
2013,04,24,14,06,14.00
2013,04,24,14,07,14.10
2013,04,24,14,08,14.20
2013,04,24,14,09,14.30
2013,04,24,14,10,14.30
2013,04,24,14,11,14.30
2013,04,24,14,12,14.40
2013,04,24,14,13,14.40
2013,04,24,14,14,14.40
2013,04,24,14,15,14.50
2013,04,24,14,16,14.50
2013,04,24,14,17,14.60
2013,04,24,14,18,14.80
2013,04,24,14,19,15.00
2013,04,24,14,20,15.20
2013,04,24,14,21,15.40
2013,04,24,14,22,15.60
2013,04,24,14,23,15.80
2013,04,24,14,24,15.80
2013,04,24,14,25,15.70
2013,04,24,14,26,15.80
2013,04,24,14,27,15.80
2013,04,24,14,28,15.80
2013,04,24,14,29,15.80
2013,04,24,14,30,15.80
2013,04,24,14,31,15.70
2013,04,24,14,32,15.60
2013,04,24,14,33,15.60
2013,04,24,14,34,15.60
2013,04,24,14,35,15.60
2013,04,24,14,36,15.50
2013,04,24,14,37,15.50
2013,04,24,14,38,15.40
2013,04,24,14,39,15.40
2013,04,24,14,40,15.40
2013,04,24,14,41,15.40
2013,04,24,14,42,15.30
2013,04,24,14,43,15.30
2013,04,24,14,44,15.40
2013,04,24,14,45,15.40
2013,04,24,14,46,15.50
2013,04,24,14,47,15.50
2013,04,24,14,48,15.60
2013,04,24,14,49,15.60
2013,04,24,14,50,15.60
2013,04,24,14,51,15.70
2013,04,24,14,52,15.80
2013,04,24,14,53,15.80
2013,04,24,14,54,15.80
2013,04,24,14,55,15.80
2013,04,24,14,56,15.70
2013,04,24,14,57,15.60
2013,04,24,14,58,15.60
2013,04,24,14,59,15.60
2013,04,24,15,00,15.60
2013,04,24,15,01,15.50
2013,04,24,15,02,15.50
2013,04,24,15,03,15.60
2013,04,24,15,04,15.60
2013,04,24,15,05,15.60
2013,04,24,15,06,15.60
2013,04,24,15,07,15.60
2013,04,24,15,08,15.60
2013,04,24,15,09,15.50
2013,04,24,15,10,15.50
2013,04,24,15,11,15.40
2013,04,24,15,12,15.40
2013,04,24,15,13,15.40
2013,04,24,15,14,15.40
2013,04,24,15,15,15.30
2013,04,24,15,16,15.30
2013,04,24,15,17,15.20
2013,04,24,15,18,15.20
2013,04,24,15,19,15.20
2013,04,24,15,20,15.10
2013,04,24,15,21,15.10
2013,04,24,15,22,15.10
2013,04,24,15,23,15.10
2013,04,24,15,24,15.20
2013,04,24,15,25,15.20
2013,04,24,15,26,15.20
2013,04,24,15,27,15.20
2013,04,24,15,28,15.20
2013,04,24,15,29,15.30
2013,04,24,15,30,15.30
2013,04,24,15,31,15.30
2013,04,24,15,32,15.40
2013,04,24,15,33,15.40
2013,04,24,15,34,15.40
2013,04,24,15,35,15.40
2013,04,24,15,36,15.40
2013,04,24,15,37,15.40
2013,04,24,15,38,15.40
2013,04,24,15,39,15.40
2013,04,24,15,40,15.50
2013,04,24,15,41,15.50
2013,04,24,15,42,15.50
2013,04,24,15,43,15.60
2013,04,24,15,44,15.60
2013,04,24,15,45,15.60
2013,04,24,15,46,15.70
2013,04,24,15,47,15.70
2013,04,24,15,48,15.70
2013,04,24,15,49,15.80
2013,04,24,15,50,15.80
2013,04,24,15,51,15.90
2013,04,24,15,52,15.90
2013,04,24,15,53,15.90
2013,04,24,15,54,15.90
2013,04,24,15,55,16.00
2013,04,24,15,56,16.00
2013,04,24,15,57,16.10
2013,04,24,15,58,16.10
2013,04,24,15,59,16.10
2013,04,24,16,00,16.10
2013,04,24,16,01,16.20
2013,04,24,16,02,16.20
2013,04,24,16,03,16.20
2013,04,24,16,04,16.30
2013,04,24,16,05,16.40
2013,04,24,16,06,16.40
2013,04,24,16,07,16.40
2013,04,24,16,08,16.40
2013,04,24,16,09,16.40
2013,04,24,16,10,16.40
2013,04,24,16,11,16.40
2013,04,24,16,12,16.30
2013,04,24,16,13,16.30
2013,04,24,16,14,16.30
2013,04,24,16,15,16.40
2013,04,24,16,16,16.40
2013,04,24,16,17,16.40
2013,04,24,16,18,16.50
2013,04,24,16,19,16.50
2013,04,24,16,20,16.40
2013,04,24,16,21,16.40
2013,04,24,16,22,16.40
2013,04,24,16,23,16.30
2013,04,24,16,24,16.30
2013,04,24,16,25,16.30
2013,04,24,16,26,16.30
2013,04,24,16,27,16.20
2013,04,24,16,28,16.20
2013,04,24,16,29,16.10
2013,04,24,16,30,16.10
2013,04,24,16,31,16.10
2013,04,24,16,32,16.10
2013,04,24,16,33,16.10
2013,04,24,16,34,16.20
2013,04,24,16,35,16.20
2013,04,24,16,36,16.20
2013,04,24,16,37,16.30
2013,04,24,16,38,16.30
2013,04,24,16,39,16.30
2013,04,24,16,40,16.30
2013,04,24,16,41,16.30
2013,04,24,16,42,16.30
2013,04,24,16,43,16.30
2013,04,24,16,44,16.40
2013,04,24,16,45,16.40
2013,04,24,16,46,16.40
2013,04,24,16,47,16.40
2013,04,24,16,48,16.40
2013,04,24,16,49,16.40
2013,04,24,16,50,16.40
2013,04,24,16,51,16.40
2013,04,24,16,52,16.40
2013,04,24,16,53,16.30
2013,04,24,16,54,16.40
2013,04,24,16,55,16.30
2013,04,24,16,56,16.30
2013,04,24,16,57,16.30
2013,04,24,16,58,16.30
2013,04,24,16,59,16.30
2013,04,24,17,00,16.40
2013,04,24,17,01,16.30
2013,04,24,17,02,16.40
2013,04,24,17,03,16.40
2013,04,24,17,04,16.40
2013,04,24,17,05,16.50
2013,04,24,17,06,16.60
2013,04,24,17,07,16.60
2013,04,24,17,08,16.70
2013,04,24,17,09,16.70
2013,04,24,17,10,16.70
2013,04,24,17,11,16.70
2013,04,24,17,12,16.70
2013,04,24,17,13,16.70
2013,04,24,17,14,16.80
2013,04,24,17,15,16.80
2013,04,24,17,16,16.80
2013,04,24,17,17,16.80
2013,04,24,17,18,16.80
2013,04,24,17,19,16.80
2013,04,24,17,20,16.80
2013,04,24,17,21,16.80
2013,04,24,17,22,16.80
2013,04,24,17,23,16.80
2013,04,24,17,24,16.80
2013,04,24,17,25,16.70
2013,04,24,17,26,16.70
2013,04,24,17,27,16.70
2013,04,24,17,28,16.70
2013,04,24,17,29,16.70
2013,04,24,17,30,16.70
2013,04,24,17,31,16.70
2013,04,24,17,32,16.70
2013,04,24,17,33,16.70
2013,04,24,17,34,16.70
2013,04,24,17,35,16.70
2013,04,24,17,36,16.80
2013,04,24,17,37,16.80
2013,04,24,17,38,16.80
2013,04,24,17,39,16.90
2013,04,24,17,40,16.90